Waarnemingen

Advertentie
Mijn weer
F3, Nederland (6239): temperatuur & dauwpunt: 18.02.2017 09:00:00 - 24.02.2017 09:00:00 (CET)F3, Nederland (6239): windsnelheid & windstoten: 18.02.2017 09:00:00 - 24.02.2017 09:00:00 (CET)F3, Nederland (6239): windrichting: 18.02.2017 09:00:00 - 24.02.2017 09:00:00 (CET)F3, Nederland (6239): luchtdruk: 18.02.2017 09:00:00 - 24.02.2017 09:00:00 (CET)F3, Nederland (6239): zicht: 18.02.2017 09:00:00 - 24.02.2017 09:00:00 (CET)
Datum & Tijd tt [°C] td [°C] ff [km/u] ff [kn] fx [km/u] fx [kn] dd ppp [hPa] vv [km]
24.02.2017 09:00:00 4,4 0,2 44 24 47 25 NW 1006,8 10
24.02.2017 08:00:00 3,2 0,4 44 24 58 31 NW 1005,7 10
24.02.2017 07:00:00 4,7 0,2 44 24 47 25 NW 1004,1 10
24.02.2017 06:00:00 4,3 0,9 50 27 54 29 NW 1003,1 10
24.02.2017 05:00:00 4,9 -1,9 57 31 61 33 NNW 1001,3 10
24.02.2017 04:00:00 5,2 -3,3 39 21 58 31 NNW 1000,0 10
24.02.2017 03:00:00 5,0 -2,8 37 20 68 37 NNW 997,7 10
24.02.2017 02:00:00 5,0 -2,5 57 31 68 37 NNW 995,8 10
24.02.2017 01:00:00 4,9 -4,6 59 32 68 37 NNW 993,7 10
24.02.2017 00:00:00 4,8 -2,6 65 35 68 37 NNW 992,2 10
23.02.2017 23:00:00 4,5 -0,8 35 19 58 31 NNW 990,6 10
23.02.2017 22:00:00 4,4 -2,4 29 16 47 25 N 988,8 8
23.02.2017 21:00:00 3,9 1,2 31 17 50 27 - 986,4 6
23.02.2017 20:00:00 3,5 1,6 42 23 72 39 N 983,2 6
23.02.2017 19:00:00 3,3 1,5 57 31 61 33 NNO 978,9 10
23.02.2017 18:00:00 6,5 4,7 29 16 32 18 W 976,6 10
23.02.2017 17:00:00 6,4 4,3 35 19 47 25 WZW 975,9 10
23.02.2017 16:00:00 6,6 3,7 54 29 54 29 WZW 975,9 10
23.02.2017 15:00:00 7,5 4,3 52 28 54 29 WZW 976,4 10
23.02.2017 14:00:00 6,6 5,7 42 23 68 37 WZW 977,7 7
23.02.2017 13:00:00 7,1 6,3 46 25 54 29 ZZW 979,0 5
23.02.2017 12:00:00 5,0 4,4 54 29 61 33 OZO 981,5 10
23.02.2017 11:00:00 3,9 3,0 54 29 54 29 OZO 984,7 10
23.02.2017 10:00:00 3,7 2,8 41 22 40 21 ZO 988,0 6
23.02.2017 09:00:00 3,9 1,7 34 18 36 19 ZZO 990,3 9
23.02.2017 08:00:00 4,4 2,0 26 14 29 16 Z 992,6 10
23.02.2017 07:00:00 5,1 1,5 21 11 29 16 ZZW 993,9 8
23.02.2017 06:00:00 6,1 4,1 16 9 22 12 WZW 995,0 10
23.02.2017 05:00:00 6,2 3,9 26 14 25 14 W 996,2 10
23.02.2017 04:00:00 6,2 3,9 28 15 36 19 W 996,7 10
23.02.2017 03:00:00 6,4 3,6 42 23 43 23 W 997,2 10
23.02.2017 02:00:00 6,5 3,9 48 26 50 27 W 997,6 10
23.02.2017 01:00:00 6,8 3,6 55 30 61 33 W 997,5 10
23.02.2017 00:00:00 7,0 3,5 63 34 61 33 W 997,2 10
22.02.2017 23:00:00 6,9 3,7 61 33 68 37 W 997,0 10
22.02.2017 22:00:00 7,3 3,3 70 38 72 39 W 996,6 10
22.02.2017 21:00:00 7,1 3,4 68 37 76 41 W 996,3 10
22.02.2017 20:00:00 7,3 3,3 70 38 76 41 W 996,0 10
22.02.2017 19:00:00 7,1 3,2 72 39 79 43 W 995,7 10
22.02.2017 18:00:00 7,1 3,2 70 38 72 39 W 995,5 10
22.02.2017 17:00:00 7,2 3,1 72 39 76 41 W 995,2 10
22.02.2017 16:00:00 7,0 3,1 74 40 76 41 W 995,3 10
22.02.2017 15:00:00 7,0 3,0 68 37 72 39 W 995,6 10
22.02.2017 14:00:00 7,0 2,8 67 36 68 37 W 996,1 10
22.02.2017 13:00:00 6,9 2,5 65 35 68 37 W 996,3 10
22.02.2017 12:00:00 6,9 2,2 67 36 65 35 W 996,5 10
22.02.2017 11:00:00 6,8 2,2 63 34 68 37 W 996,4 10
22.02.2017 10:00:00 6,9 2,0 63 34 65 35 W 996,4 10
22.02.2017 09:00:00 7,0 2,4 61 33 68 37 W 996,4 10
22.02.2017 08:00:00 7,2 3,1 63 34 65 35 W 995,6 10
22.02.2017 07:00:00 7,6 4,0 59 32 61 33 W 995,0 10
22.02.2017 06:00:00 8,1 5,0 63 34 68 37 W 994,6 10
22.02.2017 05:00:00 8,1 7,4 65 35 72 39 W 994,7 5
22.02.2017 04:00:00 8,2 7,5 78 42 76 41 W 994,3 6
22.02.2017 03:00:00 8,9 7,0 78 42 76 41 WZW 994,6 9
22.02.2017 02:00:00 8,2 7,2 72 39 76 41 WZW 995,1 7
22.02.2017 01:00:00 8,7 7,1 74 40 79 43 WZW 995,7 9
22.02.2017 00:00:00 8,3 7,3 72 39 72 39 WZW 997,0 6
21.02.2017 23:00:00 8,0 7,4 63 34 65 35 ZW 998,2 3,1
21.02.2017 22:00:00 7,3 6,3 55 30 54 29 ZZW 1000,2 4,8
21.02.2017 21:00:00 6,9 4,5 52 28 54 29 ZZW 1002,4 10
21.02.2017 20:00:00 6,4 4,5 42 23 43 23 ZZW 1004,4 10
21.02.2017 19:00:00 6,2 4,7 39 21 40 21 ZZW 1006,2 10
21.02.2017 18:00:00 6,3 4,7 37 20 36 19 ZW 1007,6 10
21.02.2017 17:00:00 6,4 4,7 35 19 36 19 WZW 1008,4 10
21.02.2017 16:00:00 6,4 4,6 37 20 36 19 W 1008,8 10
21.02.2017 15:00:00 6,4 4,7 34 18 36 19 W 1009,4 10
21.02.2017 14:00:00 6,4 4,6 34 18 36 19 W 1010,1 10
21.02.2017 13:00:00 6,5 4,4 35 19 36 19 W 1010,6 10
21.02.2017 12:00:00 6,6 4,2 37 20 43 23 WNW 1010,5 10
21.02.2017 11:00:00 6,8 3,9 39 21 40 21 WNW 1010,0 10
21.02.2017 10:00:00 6,6 4,4 42 23 43 23 WNW 1009,9 10
21.02.2017 09:00:00 6,6 4,6 46 25 43 23 WNW 1009,3 10
21.02.2017 08:00:00 6,6 4,4 46 25 47 25 W 1008,7 10
21.02.2017 07:00:00 6,7 4,4 46 25 47 25 W 1008,3 10
21.02.2017 06:00:00 6,8 4,5 48 26 47 25 WNW 1007,9 10
21.02.2017 05:00:00 6,7 5,0 42 23 43 23 WNW 1007,6 10
21.02.2017 04:00:00 6,9 5,0 41 22 40 21 W 1007,7 10
21.02.2017 03:00:00 7,1 5,0 46 25 43 23 WNW 1007,9 10
21.02.2017 02:00:00 7,2 4,9 44 24 54 29 WNW 1007,7 10
21.02.2017 01:00:00 7,4 4,9 52 28 54 29 W 1007,5 10
21.02.2017 00:00:00 7,6 5,4 44 24 47 25 W 1007,1 10
20.02.2017 23:00:00 7,2 6,0 39 21 40 21 W 1007,4 8
20.02.2017 22:00:00 7,8 6,1 44 24 43 23 W 1007,5 10
20.02.2017 21:00:00 7,7 6,2 46 25 47 25 WNW 1007,1 10
20.02.2017 20:00:00 7,9 6,4 50 27 50 27 WNW 1006,9 9
20.02.2017 19:00:00 8,0 6,6 52 28 50 27 WNW 1006,7 9
20.02.2017 18:00:00 8,2 6,7 57 31 61 33 W 1005,7 9
20.02.2017 17:00:00 8,5 6,8 61 33 61 33 W 1004,6 9
20.02.2017 16:00:00 8,8 7,1 63 34 65 35 W 1004,3 10
20.02.2017 15:00:00 8,9 7,1 61 33 61 33 W 1004,8 10
20.02.2017 14:00:00 8,4 6,9 57 31 58 31 WZW 1004,9 10
20.02.2017 13:00:00 8,6 7,1 59 32 58 31 WZW 1005,4 10
20.02.2017 12:00:00 8,1 6,9 55 30 54 29 W 1005,9 10
20.02.2017 11:00:00 8,1 7,1 52 28 50 27 WZW 1006,4 10
20.02.2017 10:00:00 7,9 7,0 52 28 50 27 WZW 1007,0 10
20.02.2017 09:00:00 7,9 6,9 54 29 50 27 W 1007,7 9
20.02.2017 08:00:00 8,0 7,0 52 28 50 27 W 1007,7 10
20.02.2017 07:00:00 8,0 7,1 52 28 54 29 W 1008,0 9
20.02.2017 06:00:00 7,7 6,9 50 27 54 29 W 1008,5 7
20.02.2017 05:00:00 7,5 6,6 50 27 50 27 WZW 1009,1 8
20.02.2017 04:00:00 7,2 6,3 50 27 50 27 WZW 1009,9 8
20.02.2017 03:00:00 7,3 6,1 52 28 50 27 WZW 1010,4 8
20.02.2017 02:00:00 7,3 5,8 48 26 47 25 WZW 1011,9 10
20.02.2017 01:00:00 7,3 5,9 44 24 43 23 WZW 1012,9 10
20.02.2017 00:00:00 7,1 5,9 42 23 40 21 WZW 1013,4 10
19.02.2017 23:00:00 6,8 5,7 39 21 36 19 WZW 1014,2 10
19.02.2017 22:00:00 6,7 5,8 39 21 36 19 WZW 1015,0 10
19.02.2017 21:00:00 6,4 5,8 34 18 32 18 WZW 1015,3 9
19.02.2017 20:00:00 6,3 5,8 29 16 29 16 W 1015,7 8
19.02.2017 19:00:00 6,4 5,8 28 15 25 14 W 1015,7 8
19.02.2017 18:00:00 6,4 5,8 29 16 29 16 W 1015,9 7
19.02.2017 17:00:00 6,5 5,8 29 16 32 18 WNW 1015,6 7
19.02.2017 16:00:00 6,5 5,7 37 20 36 19 W 1015,7 8
19.02.2017 15:00:00 6,7 5,6 34 18 36 19 W 1015,5 10
19.02.2017 14:00:00 6,8 5,6 35 19 32 18 W 1015,5 10
19.02.2017 13:00:00 6,7 5,5 31 17 36 19 W 1015,1 10
19.02.2017 12:00:00 6,8 5,4 37 20 36 19 W 1015,6 10
19.02.2017 11:00:00 7,0 5,3 37 20 36 19 W 1015,4 10
19.02.2017 10:00:00 6,9 5,3 39 21 40 21 W 1015,1 10
19.02.2017 09:00:00 7,2 5,4 46 25 47 25 W 1014,7 9
19.02.2017 08:00:00 7,2 5,8 42 23 43 23 W 1014,0 6
19.02.2017 07:00:00 7,2 5,9 41 22 43 23 W 1013,6 5
19.02.2017 06:00:00 7,2 6,0 42 23 43 23 W 1014,0 5
19.02.2017 05:00:00 7,0 6,0 46 25 47 25 WZW 1014,1 4,2
19.02.2017 04:00:00 6,7 5,9 44 24 43 23 WZW 1014,3 3,3
19.02.2017 03:00:00 6,7 6,0 46 25 47 25 WZW 1014,8 2,7
19.02.2017 02:00:00 6,7 5,7 50 27 50 27 WZW 1015,7 4,0
19.02.2017 01:00:00 6,7 5,6 48 26 47 25 WZW 1016,1 4,2
19.02.2017 00:00:00 6,5 5,5 48 26 47 25 ZW 1016,8 3,8
18.02.2017 23:00:00 6,4 5,5 46 25 47 25 WZW 1017,8 3,5
18.02.2017 22:00:00 6,3 5,2 48 26 47 25 ZW 1018,2 4,1
18.02.2017 21:00:00 6,1 5,0 50 27 54 29 ZW 1018,7 5
18.02.2017 20:00:00 5,6 4,3 54 29 50 27 ZW 1018,8 7
18.02.2017 19:00:00 5,2 4,0 52 28 50 27 ZW 1019,6 8
18.02.2017 18:00:00 5,3 4,2 52 28 54 29 ZW 1020,0 10
18.02.2017 17:00:00 5,4 4,5 50 27 54 29 ZW 1020,1 9
18.02.2017 16:00:00 5,6 4,6 43 23 50 27 ZZW 1020,4 10
18.02.2017 15:00:00 5,7 4,6 46 25 47 25 ZZW 1020,9 10
18.02.2017 14:00:00 5,6 4,9 44 24 43 23 ZZW 1021,9 6
18.02.2017 13:00:00 5,3 4,7 46 25 47 25 ZZW 1022,7 4,4
18.02.2017 12:00:00 5,2 4,6 42 23 40 21 ZZW 1023,3 8
18.02.2017 11:00:00 4,9 4,5 37 20 36 19 ZZW 1023,6 1,7
18.02.2017 10:00:00 4,4 4,2 34 18 32 18 ZZW 1024,0 0,3
18.02.2017 09:00:00 4,1 3,9 29 16 32 18 ZZW 1024,1 0,4

tt = temperatuur
td = dauwpunt
ff = windsnelheid
fx = windstoten
dd = windrichting
ppp = luchtdruk
vv = zicht

Weerstations in de omgeving